Starlink 3198

operational
NORAD ID: 49763 Int'l Des: 2021-115 Owner: SPXS Country: US Constellation: starlink
LEOCIRCULAR

Starlink 3198について

説明を読み込み中...

リアルタイム位置

3D地球を読み込み中...

次回通過

高度履歴

Altitude vs Time

uPlot chart will show altitude changes over time

軌道要素

1 49763U 21115AR 25305.52359470 .00000284 00000-0 35923-4 0 9999
2 49763 53.2191 354.4801 0001519 87.0517 273.0649 15.08834647216333
Epoch: Nov 1, 2025 • Age: 21 hours

現在のステータス

高度 548.0 km
速度 7.59 km/s
衛星直下点 -26.04°S, 151.14°E
打ち上げ日 Dec 2, 2021
運用期間 3.9 years
タイプ internet

技術仕様

分類 Payload
質量 290.00 kg
乾燥質量 270.00 kg
総質量 290.00 kg
長さ 0.20 m
直径 2.80 m
スパン 9.00 m
形状 Box + pan
製造者 SPXS
バスタイプ Starlink
フェーズステータス In Orbit
所有者/国 SPXS/US

大規模コンステレーション

Loading constellations...